This is the latest recevied weather packets stored in our database for station/object SR9SMR. If no packets are shown the sender has not sent any weather packets the latest 1 day(s).
| Time | Temp. | Humidity | Pressure | Rain* | Wind** | Luminosity | Snow |
|---|---|---|---|---|---|---|---|
| 1778021784 | 12.78° C | 100% | 895 hPa | - | 11.62 m/s, 215° | - | - |
| 1778021663 | 13.33° C | 100% | 889.6 hPa | - | 11.62 m/s, 211° | - | - |
| 1778021604 | 13.33° C | 100% | 891.4 hPa | - | 11.62 m/s, 211° | - | - |
| 1778021542 | 12.78° C | 100% | 896.2 hPa | - | 11.18 m/s, 209° | - | - |
| 1778021422 | 12.78° C | 100% | 889.8 hPa | - | 11.18 m/s, 211° | - | - |
| 1778021301 | 13.33° C | 100% | 896 hPa | - | 12.07 m/s, 211° | - | - |
| 1778021180 | 12.78° C | 100% | 889.8 hPa | - | 11.18 m/s, 212° | - | - |
| 1778021060 | 12.78° C | 100% | 890.2 hPa | - | 9.39 m/s, 214° | - | - |
| 1778021000 | 12.78° C | 100% | 891.9 hPa | - | 9.39 m/s, 212° | - | - |
| 1778020906 | 12.78° C | 100% | 895.8 hPa | - | 9.39 m/s, 212° | - | - |
| 1778020843 | 12.78° C | 100% | 890.2 hPa | - | 9.83 m/s, 216° | - | - |
| 1778020720 | 12.78° C | 100% | 892.9 hPa | - | 11.18 m/s, 219° | - | - |
| 1778020598 | 12.78° C | 100% | 891 hPa | - | 10.28 m/s, 218° | - | - |
| 1778020477 | 12.78° C | 100% | 891 hPa | - | 9.83 m/s, 208° | - | - |
| 1778020357 | 12.78° C | 100% | 896.7 hPa | - | 8.94 m/s, 203° | - | - |
| 1778020297 | 12.78° C | 100% | 896.7 hPa | - | 8.49 m/s, 205° | - | - |
| 1778020236 | 12.78° C | 100% | 893.7 hPa | - | 8.94 m/s, 208° | - | - |
| 1778020115 | 12.78° C | 100% | 890.9 hPa | - | 9.39 m/s, 206° | - | - |
| 1778019994 | 12.78° C | 100% | 894.7 hPa | - | 9.83 m/s, 199° | - | - |
| 1778019873 | 12.78° C | 100% | 894 hPa | - | 8.49 m/s, 202° | - | - |
| 1778019755 | 12.78° C | 100% | 892.6 hPa | - | 8.94 m/s, 203° | - | - |
| 1778019752 | 12.78° C | 100% | 891.3 hPa | - | 8.94 m/s, 203° | - | - |
| 1778019692 | 12.78° C | 100% | 891.3 hPa | - | 9.39 m/s, 203° | - | - |
| 1778019620 | 12.78° C | 100% | 896.8 hPa | - | 9.83 m/s, 203° | - | - |
| 1778019499 | 12.78° C | 100% | 896.2 hPa | - | 8.94 m/s, 207° | - | - |
* Rain since midnight (hover to see other rain measurements)
** Current wind speed in m/s (hover to see current wind gust speed)